Wind_Speed
49 49 50 51 51 52 52 53 54 54 55 56 57 58 59 59 60 61 61 62 63 64 64 65 66 66 67 67 68 68 69 69 70 70 70 71 71 72 72 72 73 73 74 74 75 75 76 77 78 79 80 82
48 49 49 50 50 51 52 52 53 54 55 56 57 57 58 59 60 60 61 62 63 64 64 65 66 67 67 68 69 69 70 70 70 71 71 72 72 73 73 74 74 75 75 76 77 78 79 80 80 82 83 84
48 48 48 49 50 51 51 52 53 54 55 56 57 58 59 59 60 61 62 63 63 64 65 66 67 67 68 69 69 70 70 71 71 72 72 73 73 74 75 75 76 77 78 79 80 81 82 82 83 84 85 85
48 48 48 49 50 51 52 52 53 54 55 57 58 59 60 61 62 63 64 65 65 66 67 67 68 69 69 69 70 71 71 72 73 73 74 75 75 76 77 77 78 79 80 80 81 82 82 83 83 83 84 84
47 47 48 49 51 52 53 54 55 56 57 59 60 61 63 64 65 65 66 67 67 68 69 69 70 70 71 71 72 72 73 73 74 74 75 76 76 77 78 78 78 79 79 79 80 80 80 81 81 82 82 83
47 47 49 50 52 53 54 55 56 57 59 60 61 63 64 65 66 66 67 68 68 69 70 70 71 71 71 72 72 72 72 73 74 74 75 76 77 77 77 77 78 78 78 78 79 79 80 80 81 82 83 83
47 48 50 52 54 55 56 57 59 60 61 62 63 64 66 66 67 67 68 68 69 69 70 70 70 70 70 70 70 71 72 72 73 74 75 75 76 76 77 77 78 78 78 78 78 79 80 81 82 83 84 85
48 50 52 54 56 58 59 61 62 63 63 64 66 66 67 66 66 67 67 67 67 67 67 67 67 67 67 68 69 70 71 72 73 73 74 75 76 77 77 78 78 78 79 79 80 81 83 84 84 85 85 85
50 52 54 56 58 59 61 62 62 63 64 66 66 65 64 64 64 64 63 63 63 63 64 64 65 66 67 68 69 70 71 72 73 74 75 76 77 77 78 79 79 79 80 81 81 82 83 83 83 83 83 84
52 54 56 57 58 59 60 61 63 64 65 65 63 61 60 60 60 60 60 60 61 62 63 64 65 66 68 69 70 71 72 73 74 75 76 76 77 78 78 79 80 80 80 81 81 81 80 80 81 81 81 82
54 55 56 57 58 60 62 63 63 63 61 59 57 56 56 56 57 58 60 61 63 64 65 66 67 68 69 70 70 71 72 73 73 74 75 76 76 77 78 79 80 81 81 81 82 81 81 81 81 81 81 81
55 56 57 59 60 61 61 60 58 56 54 53 54 55 56 58 60 61 62 63 64 66 67 67 68 69 69 70 70 71 71 72 72 73 74 75 76 76 77 78 79 80 81 81 81 81 81 80 80 79 79 80
55 56 58 58 58 57 55 53 52 52 53 54 56 58 59 60 61 62 63 64 65 66 67 68 68 69 69 70 71 71 72 72 73 73 73 73 74 74 74 75 75 76 76 76 75 74 75 74 74 74 74 74
54 54 55 54 53 52 51 51 52 54 56 58 59 59 60 60 60 60 61 62 63 64 65 66 67 68 68 69 70 71 71 71 71 71 70 70 70 70 70 70 70 71 72 72 70 69 69 68 68 68 68 69
51 51 52 51 51 51 52 54 56 57 58 59 59 59 59 59 59 59 60 61 62 64 65 66 66 67 67 68 69 69 70 70 70 69 69 68 68 68 68 69 69 69 70 70 69 68 67 66 66 66 66 66
51 51 51 52 52 53 55 56 57 57 58 58 58 58 59 59 60 61 62 63 65 66 67 67 67 67 68 69 69 70 70 71 71 71 71 70 70 71 71 71 71 70 70 70 70 68 67 66 66 66 67 67
51 51 52 52 53 54 55 55 56 56 57 57 57 58 59 60 62 63 64 66 67 68 69 69 69 70 70 71 71 72 72 73 73 73 74 74 74 75 75 75 75 74 73 72 71 70 68 68 68 68 69 70
49 50 51 51 52 53 54 54 55 56 57 58 59 60 62 63 65 66 67 68 70 70 71 72 72 73 73 74 74 75 75 75 75 76 76 76 77 77 77 78 78 78 77 75 74 73 71 71 72 73 74 75
47 48 49 50 52 53 54 55 57 58 59 60 61 63 64 66 67 68 69 70 71 72 73 74 75 76 76 77 77 78 78 78 78 78 79 79 79 79 80 80 80 80 79 78 78 77 76 76 78 79 81 82
47 48 50 52 54 56 57 58 59 60 61 62 63 64 66 67 68 69 70 70 71 72 74 75 76 78 78 80 80 81 81 81 80 80 81 81 81 81 82 83 83 82 81 81 82 82 82 83 85 88 89 90
49 51 53 55 57 58 59 60 61 62 63 64 65 66 67 67 69 70 71 71 72 74 75 76 77 79 80 81 83 84 84 84 84 83 83 84 84 84 85 86 86 85 85 85 86 88 89 90 93 95 97 97
53 54 56 57 59 60 61 62 63 64 65 65 66 67 67 68 70 71 72 73 74 76 77 78 79 81 82 83 85 86 87 87 87 87 87 87 88 88 88 89 89 89 89 90 92 94 95 97 100 101 102 104
55 56 58 59 61 62 63 64 65 65 66 67 68 68 69 70 71 73 74 75 76 78 79 81 82 83 85 86 87 89 90 90 90 90 90 90 91 92 92 93 93 93 94 95 97 98 100 102 104 106 107 108
58 59 61 62 64 65 66 67 67 68 68 69 70 70 71 72 73 74 75 77 78 80 82 83 85 86 88 89 90 92 92 93 93 93 93 93 94 95 96 96 97 97 98 99 100 102 104 105 107 109 111 111
61 63 64 65 66 68 69 70 70 71 72 72 72 73 73 74 75 76 77 78 80 81 83 85 87 89 90 91 93 94 95 95 95 95 95 96 96 97 98 99 101 101 101 102 103 105 105 106 109 112 113 113
63 64 65 67 68 69 70 72 73 74 74 74 75 75 75 76 77 78 79 80 82 83 85 87 89 91 93 94 95 96 97 97 97 98 98 98 99 100 101 101 102 104 104 105 106 107 107 108 111 113 115 116
64 65 66 68 69 70 72 73 75 75 76 76 76 77 77 78 79 80 81 83 84 85 87 89 91 93 94 96 97 98 99 100 100 100 101 101 101 102 102 102 103 104 106 108 109 111 111 111 112 113 114 116
66 67 68 70 71 71 73 75 76 76 77 78 78 78 79 80 81 82 83 85 86 87 89 90 92 94 96 98 99 100 101 102 102 103 103 103 103 102 102 102 103 104 107 110 112 114 115 116 116 115 115 116
69 70 71 72 73 73 74 76 77 77 78 79 79 80 81 81 82 84 85 87 88 90 91 92 94 96 98 99 101 102 103 104 104 105 105 104 103 103 102 102 103 105 109 112 115 117 119 120 121 120 119 119
72 72 73 74 74 75 76 76 77 78 79 80 81 82 83 83 85 86 87 89 91 92 94 95 97 98 99 101 102 104 105 106 106 107 106 105 104 103 104 104 104 107 111 114 117 120 122 124 125 125 124 124
73 74 75 75 76 77 77 77 78 80 81 81 82 83 84 86 88 89 90 91 93 95 97 98 99 100 101 102 104 106 107 108 108 108 107 106 105 105 106 107 107 109 113 116 119 122 125 127 129 129 129 128
Wind_Direction
300 300 300 300 299 299 300 300 300 300 300 300 300 299 299 298 297 297 296 295 295 294 294 293 293 292 292 291 291 290 289 289 288 288 287 286 286 285 285 284 284 284 283 283 283 283 283 282 282 282 282 281
300 300 301 301 302 303 303 304 304 304 304 304 303 301 300 299 298 297 296 296 295 294 294 293 292 292 291 291 290 290 289 289 288 287 286 286 285 285 285 284 284 284 284 284 284 283 283 283 283 283 282 282
302 303 304 305 306 306 306 306 306 305 304 302 301 300 299 298 297 296 296 295 294 293 293 292 292 291 291 290 290 289 289 288 287 287 286 286 286 286 285 285 285 285 285 285 285 284 284 284 283 283 283 282
305 307 308 307 307 306 306 304 303 302 300 299 298 298 297 297 296 295 295 294 294 293 293 292 292 291 291 290 290 290 289 289 289 288 288 288 288 288 288 288 288 288 288 287 287 287 286 286 285 284 284 283
307 307 307 305 305 304 303 302 301 300 299 298 298 297 297 296 295 295 294 294 293 293 293 293 293 292 292 292 292 292 292 292 292 292 292 293 293 293 293 292 292 292 291 291 291 290 290 289 288 288 287 286
306 305 304 303 303 302 301 300 300 299 299 299 299 299 298 298 297 297 296 296 296 296 296 296 296 297 297 297 297 297 297 297 298 298 298 298 297 297 297 296 296 295 295 294 294 293 293 292 291 290 290 289
305 304 303 302 301 301 301 301 301 301 302 302 303 303 303 302 301 301 301 301 301 302 302 302 303 303 302 302 302 302 302 302 302 301 301 301 300 300 299 299 298 298 297 296 296 295 295 294 294 293 292 291
304 303 302 301 301 301 302 303 304 304 305 306 307 308 307 306 306 306 306 306 307 308 308 308 308 307 307 307 307 307 306 306 305 305 304 303 303 302 302 301 300 300 299 298 297 297 296 295 294 293 292 292
302 301 301 301 302 303 304 306 307 308 309 310 311 311 311 311 311 311 312 312 313 312 312 312 312 313 313 312 312 311 311 310 309 308 307 306 305 304 303 302 301 300 299 298 297 296 295 294 293 293 292 291
301 301 302 303 305 307 308 310 311 312 312 313 314 315 315 316 316 316 317 317 317 317 317 317 317 317 316 316 315 314 313 312 311 309 308 307 306 305 304 303 302 301 300 299 298 297 297 296 295 294 293 293
303 305 307 309 310 312 313 314 314 314 315 316 317 318 319 319 319 320 320 320 320 320 319 319 319 319 318 317 316 315 314 312 311 310 309 308 308 307 307 306 306 305 304 303 303 302 301 300 298 297 296 295
309 311 313 314 314 315 315 315 316 317 318 318 319 319 319 319 320 320 321 320 320 320 320 320 319 319 318 317 316 315 314 313 312 312 311 311 310 310 309 308 308 307 306 306 305 304 303 302 301 299 298 297
314 315 315 315 315 315 316 317 318 318 318 318 319 319 320 321 322 322 322 321 321 321 320 319 319 318 317 317 317 316 315 315 314 314 313 312 311 309 308 307 306 306 305 305 305 304 304 303 302 301 300 298
317 316 315 315 316 318 318 318 318 318 318 319 321 322 323 324 325 326 326 325 324 322 321 320 319 319 319 318 318 317 316 314 313 312 311 310 308 307 306 305 305 305 304 303 303 302 302 302 301 301 300 299
317 316 317 318 318 318 318 317 318 319 320 321 322 323 324 325 326 327 327 327 325 324 323 322 321 321 321 320 319 317 315 313 312 310 309 308 307 306 306 306 306 306 305 304 303 302 301 301 301 301 301 301
318 318 318 318 317 317 317 318 319 320 321 322 322 323 323 325 325 325 325 326 326 326 325 325 324 323 322 322 320 318 317 314 313 311 310 309 308 308 308 309 309 309 308 307 306 305 305 305 305 305 305 305
320 319 318 318 318 319 320 321 321 322 322 323 324 324 325 326 326 326 326 327 327 328 328 328 327 326 325 324 322 320 319 317 315 313 312 311 310 310 311 312 313 313 312 311 310 310 310 310 311 312 311 311
322 321 322 322 323 323 324 324 324 324 325 326 327 328 328 329 329 329 329 329 330 330 330 330 329 329 327 326 324 322 321 319 317 316 315 314 314 314 314 315 315 316 316 316 315 315 315 316 317 318 318 318
327 327 327 327 327 327 328 328 328 328 328 329 330 330 331 331 331 331 331 331 331 331 331 331 330 330 329 328 326 325 323 321 320 319 318 317 317 317 317 317 318 318 318 319 320 320 321 321 322 323 323 323
331 331 330 330 330 330 331 330 330 330 330 331 331 331 331 331 331 331 331 331 330 330 330 330 330 330 330 329 328 326 325 323 322 321 320 320 319 320 320 320 320 320 321 323 324 324 325 325 326 326 326 326
332 332 332 331 331 331 331 330 330 330 330 330 330 330 330 329 329 330 330 330 329 329 329 329 329 329 329 329 328 327 325 324 324 323 322 322 322 322 322 323 323 324 325 327 327 327 328 328 328 328 327 327
332 332 331 330 330 329 329 329 328 328 328 328 329 328 328 327 327 328 328 328 328 328 327 327 328 328 328 329 328 327 326 325 325 324 324 324 324 324 325 326 326 327 328 329 329 329 329 329 329 328 328 327
331 330 330 329 328 327 327 327 327 326 326 326 327 326 326 326 326 327 327 327 327 327 326 326 327 327 327 328 328 327 327 326 326 325 325 325 325 326 327 328 328 329 330 330 330 330 330 329 328 327 327 326
329 329 328 327 327 326 326 326 325 324 324 325 325 325 325 324 324 325 326 326 326 326 326 326 326 326 326 327 327 327 327 326 326 326 326 326 326 327 328 329 329 330 330 330 329 329 329 328 326 326 326 324
327 327 326 326 326 326 325 325 324 323 323 323 324 324 324 323 324 324 324 325 325 325 325 325 325 326 326 326 327 327 327 326 326 326 326 327 327 328 329 330 330 330 330 329 328 328 328 326 324 325 324 323
326 326 325 325 325 325 324 324 323 322 322 322 323 323 323 323 323 323 324 324 324 325 325 325 325 325 325 326 326 327 327 326 326 326 327 327 328 329 330 330 329 328 328 327 327 327 326 324 323 324 322 321
325 324 324 324 323 323 323 323 322 321 320 321 322 322 322 323 322 323 323 323 324 324 324 324 324 325 325 325 326 326 326 326 326 327 327 328 329 329 329 329 328 326 325 325 325 325 324 323 322 322 320 319
324 323 323 323 322 322 322 321 321 320 319 320 321 321 322 322 322 322 322 323 323 323 323 324 324 324 325 325 325 326 326 326 326 327 327 328 328 328 328 327 326 324 323 323 323 323 322 322 322 321 319 318
324 323 323 322 322 322 322 321 320 320 320 320 320 321 322 322 321 322 322 323 323 323 323 323 323 324 324 325 325 325 326 326 326 326 327 328 328 327 326 325 324 322 321 321 321 320 320 320 320 319 318 317
325 324 323 323 322 322 322 321 320 320 320 320 320 321 322 322 322 322 323 323 322 322 322 323 323 323 324 324 324 324 325 325 325 326 327 327 326 325 324 323 322 320 319 319 319 319 318 319 318 318 317 316
326 325 324 324 323 322 321 321 320 320 321 321 321 322 322 322 322 323 323 323 322 322 322 323 323 323 323 323 323 324 324 324 325 326 326 325 325 323 322 321 320 319 318 318 318 317 317 317 317 316 315 315
Height
10760 10758 10755 10753 10750 10748 10745 10743 10740 10738 10735 10733 10730 10728 10725 10723 10720 10718 10715 10712 10709 10706 10703 10700 10697 10694 10691 10689 10686 10683 10680 10677 10674 10671 10668 10664 10661 10658 10655 10652 10649 10646 10643 10639 10636 10633 10631 10628 10625 10622 10619 10617
10755 10753 10751 10748 10745 10743 10740 10738 10736 10733 10731 10728 10725 10723 10720 10717 10714 10711 10708 10706 10703 10699 10696 10693 10691 10688 10685 10682 10679 10676 10673 10670 10667 10664 10661 10658 10654 10651 10648 10644 10641 10638 10634 10631 10628 10625 10622 10619 10617 10614 10611 10608
10751 10749 10746 10743 10741 10738 10736 10733 10731 10728 10725 10723 10720 10717 10714 10711 10708 10705 10702 10699 10696 10693 10690 10687 10685 10682 10679 10676 10673 10670 10667 10663 10660 10657 10653 10650 10647 10643 10640 10636 10633 10630 10626 10623 10620 10617 10614 10611 10608 10605 10602 10598
10747 10744 10742 10739 10736 10734 10731 10728 10726 10723 10720 10717 10714 10711 10708 10705 10702 10699 10696 10693 10690 10687 10684 10682 10679 10675 10672 10669 10666 10663 10659 10656 10652 10649 10645 10642 10638 10635 10632 10628 10625 10621 10618 10614 10611 10607 10604 10601 10597 10594 10591 10588
10743 10740 10737 10735 10732 10729 10727 10724 10721 10718 10715 10712 10709 10706 10703 10700 10697 10694 10690 10687 10684 10681 10678 10675 10672 10669 10666 10662 10659 10655 10652 10648 10644 10640 10637 10633 10629 10626 10622 10619 10615 10612 10608 10604 10601 10597 10593 10590 10586 10583 10580 10576
10738 10736 10733 10730 10728 10725 10722 10719 10716 10713 10710 10707 10704 10701 10698 10694 10691 10688 10684 10681 10678 10675 10671 10668 10665 10661 10658 10654 10650 10646 10643 10639 10635 10631 10627 10623 10619 10616 10612 10609 10605 10602 10598 10594 10590 10587 10583 10579 10575 10572 10568 10565
10733 10731 10728 10726 10723 10720 10717 10714 10711 10708 10705 10702 10698 10695 10691 10688 10684 10681 10678 10674 10671 10668 10664 10661 10657 10653 10649 10645 10641 10637 10634 10630 10626 10622 10618 10614 10610 10606 10603 10599 10595 10592 10588 10585 10581 10577 10573 10569 10565 10561 10557 10554
10729 10727 10724 10721 10718 10715 10712 10709 10706 10703 10699 10696 10692 10689 10685 10682 10678 10675 10672 10668 10665 10661 10657 10653 10649 10645 10641 10637 10634 10630 10626 10621 10617 10614 10610 10605 10601 10597 10594 10590 10586 10583 10579 10575 10572 10568 10564 10560 10556 10552 10548 10544
10725 10722 10719 10716 10714 10711 10708 10705 10701 10698 10694 10691 10687 10683 10680 10676 10673 10669 10666 10662 10658 10654 10650 10646 10642 10638 10634 10630 10626 10622 10617 10613 10609 10605 10601 10597 10593 10589 10585 10580 10577 10573 10569 10566 10562 10559 10555 10551 10547 10543 10539 10535
10720 10718 10715 10712 10710 10706 10703 10700 10696 10693 10689 10685 10681 10678 10674 10670 10667 10663 10659 10655 10651 10647 10643 10639 10635 10631 10627 10622 10618 10614 10609 10605 10601 10597 10593 10589 10585 10580 10576 10571 10567 10563 10560 10555 10552 10549 10545 10541 10537 10533 10529 10525
10717 10714 10711 10708 10704 10701 10697 10694 10690 10687 10683 10679 10675 10672 10668 10664 10660 10656 10652 10648 10644 10640 10636 10632 10628 10623 10619 10615 10611 10606 10602 10598 10593 10589 10584 10580 10575 10571 10566 10562 10557 10553 10549 10545 10540 10536 10533 10530 10526 10522 10518 10513
10712 10709 10706 10702 10698 10695 10691 10688 10685 10681 10678 10674 10670 10667 10663 10659 10654 10650 10646 10642 10638 10634 10629 10625 10621 10617 10613 10608 10604 10599 10595 10590 10586 10581 10576 10572 10567 10562 10558 10553 10548 10543 10540 10536 10531 10526 10521 10518 10514 10510 10506 10502
10706 10703 10699 10696 10692 10689 10686 10683 10680 10676 10673 10669 10665 10661 10657 10653 10649 10645 10641 10637 10632 10628 10624 10620 10615 10611 10607 10602 10597 10592 10587 10582 10578 10574 10569 10565 10560 10555 10551 10546 10542 10536 10531 10528 10524 10518 10513 10509 10504 10500 10497 10493
10701 10697 10694 10690 10688 10685 10682 10678 10675 10671 10668 10664 10660 10656 10652 10648 10643 10639 10636 10631 10627 10623 10619 10614 10610 10605 10600 10595 10591 10586 10581 10576 10571 10567 10563 10558 10554 10549 10545 10540 10536 10530 10524 10520 10517 10512 10507 10502 10496 10492 10488 10484
10695 10692 10689 10686 10684 10681 10677 10674 10670 10667 10663 10659 10655 10651 10647 10642 10638 10634 10630 10626 10622 10617 10613 10608 10604 10599 10594 10589 10585 10580 10575 10570 10565 10561 10556 10552 10548 10543 10538 10533 10529 10523 10516 10511 10507 10504 10499 10494 10489 10484 10479 10475
10692 10689 10686 10683 10680 10677 10673 10669 10666 10662 10658 10654 10650 10646 10641 10637 10633 10629 10625 10620 10616 10611 10606 10602 10597 10593 10588 10583 10578 10574 10569 10564 10559 10554 10550 10545 10540 10535 10530 10524 10519 10515 10509 10502 10496 10493 10489 10485 10480 10475 10470 10465
10688 10685 10682 10679 10676 10672 10668 10665 10660 10657 10653 10649 10645 10640 10636 10632 10627 10623 10618 10614 10609 10604 10599 10595 10590 10586 10581 10576 10571 10566 10562 10557 10552 10547 10542 10537 10532 10527 10521 10515 10509 10505 10499 10493 10486 10482 10478 10474 10469 10465 10459 10455
10685 10681 10677 10674 10670 10667 10663 10659 10655 10650 10646 10642 10638 10634 10629 10625 10620 10616 10611 10606 10602 10597 10592 10587 10583 10578 10574 10569 10564 10559 10554 10549 10544 10539 10533 10529 10524 10517 10512 10506 10500 10495 10489 10483 10476 10471 10467 10463 10458 10454 10449 10444
10680 10676 10672 10669 10665 10661 10657 10653 10648 10644 10640 10636 10631 10627 10622 10618 10613 10609 10604 10599 10594 10589 10584 10580 10575 10571 10566 10561 10556 10551 10546 10541 10536 10530 10524 10519 10515 10508 10502 10497 10492 10486 10480 10473 10465 10460 10456 10452 10447 10442 10438 10433
10675 10671 10667 10663 10659 10655 10651 10646 10642 10637 10633 10629 10625 10620 10615 10611 10606 10602 10597 10592 10587 10582 10577 10572 10567 10562 10558 10553 10547 10542 10537 10533 10528 10522 10516 10510 10506 10500 10493 10487 10481 10476 10471 10464 10456 10450 10445 10441 10436 10431 10427 10423
10670 10666 10662 10657 10653 10649 10645 10640 10636 10631 10627 10623 10618 10614 10609 10604 10599 10594 10590 10585 10580 10574 10569 10564 10559 10554 10550 10545 10539 10533 10528 10523 10518 10513 10507 10500 10495 10490 10483 10476 10470 10464 10459 10453 10446 10440 10435 10430 10425 10420 10416 10412
10666 10661 10656 10652 10647 10643 10639 10635 10630 10625 10621 10616 10612 10607 10602 10597 10592 10587 10582 10577 10572 10567 10561 10556 10551 10545 10540 10536 10530 10524 10518 10513 10508 10502 10497 10490 10484 10479 10473 10465 10459 10453 10447 10442 10436 10430 10424 10419 10414 10409 10405 10401
10661 10656 10652 10646 10641 10637 10632 10628 10624 10619 10614 10610 10605 10600 10595 10590 10584 10580 10575 10570 10565 10559 10553 10547 10542 10536 10531 10526 10520 10514 10507 10501 10496 10491 10486 10480 10473 10467 10461 10454 10448 10442 10437 10431 10425 10419 10414 10408 10402 10398 10394 10389
10655 10650 10646 10641 10636 10630 10625 10621 10616 10612 10607 10603 10598 10593 10588 10582 10577 10572 10567 10562 10557 10551 10544 10538 10533 10527 10521 10516 10511 10504 10497 10491 10486 10480 10475 10469 10463 10456 10449 10442 10436 10431 10426 10421 10415 10409 10404 10398 10391 10387 10383 10377
10649 10644 10639 10634 10629 10624 10618 10614 10609 10604 10600 10595 10591 10585 10580 10575 10569 10564 10559 10554 10549 10543 10536 10530 10523 10517 10511 10506 10500 10494 10488 10481 10475 10469 10464 10458 10452 10445 10437 10430 10422 10417 10413 10409 10405 10400 10396 10389 10380 10375 10371 10366
10643 10638 10633 10628 10623 10618 10612 10607 10602 10597 10592 10588 10583 10577 10572 10566 10561 10556 10550 10545 10540 10534 10528 10521 10514 10508 10501 10496 10490 10484 10477 10471 10464 10458 10452 10446 10440 10432 10425 10418 10409 10402 10399 10396 10392 10389 10388 10383 10374 10366 10357 10351
10638 10632 10627 10623 10618 10612 10607 10600 10595 10590 10584 10579 10575 10569 10564 10558 10552 10547 10541 10536 10531 10525 10518 10512 10505 10499 10492 10486 10480 10474 10467 10459 10452 10446 10439 10433 10427 10420 10412 10406 10398 10390 10384 10381 10378 10375 10374 10372 10369 10364 10353 10342
10632 10627 10622 10617 10612 10607 10601 10595 10589 10583 10576 10571 10567 10560 10555 10550 10544 10539 10533 10526 10521 10515 10509 10503 10496 10489 10482 10475 10469 10463 10456 10448 10440 10433 10427 10420 10414 10407 10400 10394 10388 10379 10371 10366 10363 10359 10357 10355 10355 10355 10348 10341
10626 10621 10616 10611 10606 10600 10595 10588 10582 10576 10570 10563 10558 10552 10547 10541 10536 10530 10524 10517 10512 10506 10500 10494 10487 10480 10472 10465 10458 10452 10445 10437 10428 10421 10414 10407 10401 10394 10388 10383 10378 10370 10360 10354 10349 10343 10340 10337 10336 10337 10333 10330
10620 10615 10610 10605 10599 10594 10588 10582 10575 10569 10564 10557 10550 10544 10538 10532 10527 10521 10515 10508 10502 10496 10490 10483 10477 10469 10462 10454 10447 10440 10434 10426 10417 10409 10402 10394 10388 10382 10376 10371 10367 10360 10350 10343 10338 10330 10323 10319 10316 10316 10314 10310
10613 10608 10603 10598 10592 10586 10580 10575 10568 10561 10556 10550 10543 10537 10530 10524 10518 10512 10506 10499 10493 10486 10480 10473 10466 10459 10452 10444 10436 10429 10423 10415 10406 10398 10390 10382 10376 10370 10363 10358 10354 10350 10341 10333 10327 10318 10310 10305 10297 10293 10292 10289